• In Austria
  • List of Countries
  • For 7 days
  • Water Temperature
  • Satellite Maps
  • Weather Map
  • News
  • Weather Widgets
  • user-avatar
    Login

    Hourly Weather Siva

    Today, 18 December, Monday

    Time Temperature Precipitation Wind Pressure Humidity
    00:00 +21°C° 0 mm 1 mps 759 mmHg 30%
    01:00 +19°C° 0 mm 2 mps 759 mmHg 31%
    02:00 +19°C° 0 mm 2 mps 759 mmHg 31%
    03:00 +19°C° 0 mm 2 mps 759 mmHg 32%
    04:00 +19°C° 0 mm 2 mps 759 mmHg 32%
    05:00 +18°C° 0 mm 2 mps 759 mmHg 33%
    06:00 +18°C° 0 mm 2 mps 759 mmHg 33%
    07:00 +19°C° 0 mm 2 mps 759 mmHg 33%
    08:00 +19°C° 0 mm 2 mps 759 mmHg 33%
    09:00 +20°C° 0 mm 2 mps 759 mmHg 32%
    10:00 +21°C° 0 mm 3 mps 760 mmHg 30%
    11:00 +22°C° 0 mm 3 mps 760 mmHg 29%
    12:00 +24°C° 0 mm 3 mps 759 mmHg 28%
    13:00 +24°C° 0 mm 3 mps 759 mmHg 27%
    14:00 +25°C° 0 mm 3 mps 758 mmHg 26%
    15:00 +25°C° 0 mm 3 mps 758 mmHg 27%
    16:00 +24°C° 0 mm 2 mps 758 mmHg 29%
    17:00 +23°C° 0 mm 2 mps 758 mmHg 30%
    18:00 +22°C° 0 mm 3 mps 758 mmHg 33%
    19:00 +21°C° 0 mm 3 mps 759 mmHg 36%
    20:00 +21°C° 0 mm 3 mps 759 mmHg 38%
    21:00 +20°C° 0 mm 4 mps 759 mmHg 42%
    22:00 +20°C° 0 mm 4 mps 759 mmHg 46%
    23:00 +19°C° 0 mm 4 mps 760 mmHg 50%

    Tomorrow, 19 December, Tuesday

    Time Temperature Precipitation Wind Pressure Humidity
    00:00 +19°C° 0 mm 4 mps 759 mmHg 57%
    01:00 +19°C° 0 mm 5 mps 759 mmHg 64%
    02:00 +17°C° 0 mm 5 mps 759 mmHg 71%
    03:00 +17°C° 0 mm 5 mps 759 mmHg 75%
    04:00 +17°C° 0 mm 5 mps 759 mmHg 78%
    05:00 +16°C° 0 mm 5 mps 759 mmHg 81%
    06:00 +16°C° 0 mm 5 mps 759 mmHg 81%
    07:00 +16°C° 0 mm 5 mps 759 mmHg 81%
    08:00 +16°C° 0 mm 5 mps 759 mmHg 82%
    09:00 +17°C° 0 mm 6 mps 759 mmHg 75%
    10:00 +20°C° 0 mm 6 mps 760 mmHg 69%
    11:00 +21°C° 0 mm 7 mps 760 mmHg 62%
    12:00 +21°C° 0 mm 7 mps 759 mmHg 59%
    13:00 +22°C° 0 mm 6 mps 758 mmHg 55%
    14:00 +23°C° 0 mm 6 mps 758 mmHg 51%
    15:00 +22°C° 0 mm 5 mps 758 mmHg 52%
    16:00 +22°C° 0 mm 5 mps 757 mmHg 53%
    17:00 +22°C° 0 mm 5 mps 757 mmHg 53%
    18:00 +21°C° 0 mm 5 mps 757 mmHg 56%
    19:00 +21°C° 0 mm 5 mps 758 mmHg 59%
    20:00 +20°C° 0 mm 5 mps 758 mmHg 62%
    21:00 +20°C° 0 mm 5 mps 758 mmHg 66%
    22:00 +19°C° 0 mm 5 mps 758 mmHg 70%
    23:00 +19°C° 0 mm 5 mps 758 mmHg 73%

    Day after tomorrow, 20 December, Wednesday

    Time Temperature Precipitation Wind Pressure Humidity
    00:00 +17°C° 0 mm 5 mps 758 mmHg 76%
    01:00 +17°C° 0 mm 5 mps 758 mmHg 79%
    02:00 +18°C° 0 mm 4 mps 758 mmHg 83%
    03:00 +17°C° 0 mm 4 mps 757 mmHg 85%
    04:00 +17°C° 0 mm 4 mps 757 mmHg 87%
    05:00 +16°C° 0 mm 5 mps 757 mmHg 90%
    06:00 +15°C° 0 mm 4 mps 757 mmHg 90%
    07:00 +15°C° 0 mm 4 mps 757 mmHg 91%
    08:00 +15°C° 0 mm 4 mps 758 mmHg 92%
    09:00 +18°C° 0 mm 4 mps 758 mmHg 83%
    10:00 +19°C° 0 mm 4 mps 758 mmHg 74%
    11:00 +21°C° 0 mm 5 mps 758 mmHg 65%
    12:00 +22°C° 0 mm 4 mps 757 mmHg 58%
    13:00 +23°C° 0 mm 4 mps 757 mmHg 51%
    14:00 +25°C° 0 mm 4 mps 756 mmHg 44%
    15:00 +24°C° 0 mm 3 mps 756 mmHg 45%
    16:00 +24°C° 0 mm 3 mps 756 mmHg 46%
    17:00 +22°C° 0 mm 3 mps 756 mmHg 47%
    18:00 +22°C° 0 mm 3 mps 757 mmHg 49%
    19:00 +21°C° 0 mm 3 mps 757 mmHg 51%
    20:00 +20°C° 0 mm 3 mps 758 mmHg 54%
    21:00 +20°C° 0 mm 3 mps 758 mmHg 56%
    22:00 +19°C° 0 mm 3 mps 758 mmHg 58%
    23:00 +19°C° 0 mm 3 mps 758 mmHg 60%

    21 December, Thursday

    Time Temperature Precipitation Wind Pressure Humidity
    00:00 +19°C° 0 mm 4 mps 758 mmHg 65%
    01:00 +18°C° 0 mm 4 mps 758 mmHg 70%
    02:00 +18°C° 0 mm 4 mps 758 mmHg 76%
    03:00 +18°C° 0 mm 4 mps 757 mmHg 79%
    04:00 +17°C° 0 mm 4 mps 757 mmHg 83%
    05:00 +17°C° 0 mm 4 mps 757 mmHg 86%
    06:00 +17°C° 0 mm 4 mps 757 mmHg 87%
    07:00 +17°C° 0 mm 4 mps 758 mmHg 87%
    08:00 +17°C° 0 mm 4 mps 758 mmHg 88%
    09:00 +19°C° 0 mm 4 mps 758 mmHg 77%
    10:00 +21°C° 0 mm 5 mps 758 mmHg 67%
    11:00 +22°C° 0 mm 5 mps 758 mmHg 57%
    12:00 +23°C° 0 mm 5 mps 758 mmHg 50%
    13:00 +26°C° 0 mm 4 mps 757 mmHg 43%
    14:00 +27°C° 0 mm 4 mps 756 mmHg 36%
    15:00 +26°C° 0 mm 4 mps 756 mmHg 37%
    16:00 +25°C° 0 mm 3 mps 756 mmHg 38%
    17:00 +25°C° 0 mm 3 mps 756 mmHg 39%
    18:00 +24°C° 0 mm 3 mps 756 mmHg 41%
    19:00 +22°C° 0 mm 4 mps 757 mmHg 43%
    20:00 +21°C° 0 mm 4 mps 757 mmHg 45%
    21:00 +21°C° 0 mm 4 mps 757 mmHg 46%
    22:00 +20°C° 0 mm 4 mps 757 mmHg 46%
    23:00 +20°C° 0 mm 4 mps 757 mmHg 46%

    22 December, Friday

    Time Temperature Precipitation Wind Pressure Humidity
    00:00 +20°C° 0 mm 4 mps 757 mmHg 47%
    01:00 +19°C° 0 mm 4 mps 757 mmHg 48%
    02:00 +19°C° 0 mm 4 mps 756 mmHg 49%
    03:00 +19°C° 0 mm 4 mps 756 mmHg 50%
    04:00 +19°C° 0 mm 4 mps 756 mmHg 51%
    05:00 +19°C° 0 mm 4 mps 756 mmHg 52%
    06:00 +19°C° 0 mm 4 mps 756 mmHg 53%
    07:00 +19°C° 0 mm 4 mps 756 mmHg 54%
    08:00 +19°C° 0 mm 4 mps 756 mmHg 55%
    09:00 +20°C° 0 mm 5 mps 756 mmHg 48%
    10:00 +22°C° 0 mm 5 mps 756 mmHg 42%
    11:00 +25°C° 0 mm 5 mps 756 mmHg 35%
    12:00 +26°C° 0 mm 5 mps 756 mmHg 30%
    13:00 +27°C° 0 mm 5 mps 755 mmHg 26%
    14:00 +29°C° 0 mm 5 mps 754 mmHg 22%
    15:00 +28°C° 0 mm 5 mps 754 mmHg 23%
    16:00 +27°C° 0 mm 5 mps 754 mmHg 23%
    17:00 +26°C° 0 mm 4 mps 754 mmHg 24%
    18:00 +26°C° 0 mm 5 mps 754 mmHg 26%
    19:00 +25°C° 0 mm 5 mps 754 mmHg 28%
    20:00 +23°C° 0 mm 5 mps 754 mmHg 30%
    21:00 +22°C° 0 mm 5 mps 754 mmHg 31%
    22:00 +22°C° 0 mm 5 mps 754 mmHg 32%
    23:00 +22°C° 0 mm 6 mps 754 mmHg 33%

    23 December, Saturday

    Time Temperature Precipitation Wind Pressure Humidity
    00:00 +21°C° 0 mm 5 mps 754 mmHg 35%
    01:00 +21°C° 0 mm 5 mps 753 mmHg 36%
    02:00 +21°C° 0 mm 5 mps 753 mmHg 38%
    03:00 +20°C° 0 mm 4 mps 752 mmHg 40%
    04:00 +20°C° 0 mm 4 mps 752 mmHg 42%
    05:00 +20°C° 0 mm 4 mps 752 mmHg 45%
    06:00 +20°C° 0 mm 4 mps 752 mmHg 45%
    07:00 +20°C° 0 mm 4 mps 752 mmHg 45%
    08:00 +20°C° 0 mm 4 mps 753 mmHg 45%
    09:00 +21°C° 0 mm 4 mps 753 mmHg 40%
    10:00 +22°C° 0 mm 5 mps 753 mmHg 36%
    11:00 +23°C° 0 mm 5 mps 753 mmHg 31%
    12:00 +24°C° 0 mm 6 mps 752 mmHg 32%
    13:00 +24°C° 0 mm 6 mps 752 mmHg 34%
    14:00 +26°C° 0 mm 7 mps 751 mmHg 35%
    15:00 +24°C° 0 mm 6 mps 751 mmHg 39%
    16:00 +23°C° 0 mm 6 mps 752 mmHg 43%
    17:00 +23°C° 0 mm 6 mps 752 mmHg 46%
    18:00 +22°C° 0 mm 6 mps 752 mmHg 48%
    19:00 +21°C° 0 mm 6 mps 753 mmHg 50%
    20:00 +19°C° 0 mm 5 mps 753 mmHg 51%
    21:00 +19°C° 0 mm 6 mps 753 mmHg 49%
    22:00 +17°C° 0 mm 7 mps 753 mmHg 47%
    23:00 +17°C° 0 mm 8 mps 754 mmHg 45%
    Show more